H1 CPF 2 NER 2025 11 1 9 305 01 glonass139 H2 1808601 9139 43687 2025 11 1 0 0 0 2025 11 4 23 45 0 900 1 1 0 0 0 1 H9 10 0 60980 0.00000 0 5108516.275 9876552.129 -22940463.256 10 0 60980 900.00000 0 2486707.965 10944815.473 -22890465.634 10 0 60980 1800.00000 0 -21175.003 12184135.672 -22395208.859 10 0 60980 2700.00000 0 -2357061.108 13556940.002 -21464371.814 10 0 60980 3600.00000 0 -4471036.752 15016543.137 -20116109.563 10 0 60980 4500.00000 0 -6323177.148 16509049.999 -18376696.006 10 0 60980 5400.00000 0 -7884953.435 17975580.465 -16280008.238 10 0 60980 6300.00000 0 -9140158.579 19354722.391 -13866862.763 10 0 60980 7200.00000 0 -10085314.864 20585109.804 -11184216.663 10 0 60980 8100.00000 0 -10729547.634 21608017.673 -8284249.493 10 0 60980 9000.00000 0 -11093932.370 22369864.032 -5223344.035 10 0 60980 9900.00000 0 -11210344.373 22824514.019 -2060986.156 10 0 60980 10800.00000 0 -11119861.204 22935288.850 1141394.406 10 0 60980 11700.00000 0 -10870786.804 22676595.183 4321619.384 10 0 60980 12600.00000 0 -10516381.988 22035106.442 7417969.760 10 0 60980 13500.00000 0 -10112398.157 21010446.551 10370382.282 10 0 60980 14400.00000 0 -9714519.070 19615347.554 13121611.428 10 0 60980 15300.00000 0 -9375819.057 17875274.583 15618334.372 10 0 60980 16200.00000 0 -9144345.010 15827533.919 17812177.966 10 0 60980 17100.00000 0 -9060923.931 13519901.234 19660648.488 10 0 60980 18000.00000 0 -9157288.165 11008826.925 21127946.926 10 0 60980 18900.00000 0 -9454596.846 8357292.655 22185654.988 10 0 60980 19800.00000 0 -9962415.569 5632407.393 22813279.448 10 0 60980 20700.00000 0 -10678197.094 2902841.728 22998645.094 10 0 60980 21600.00000 0 -11587285.172 236205.672 22738129.269 10 0 60980 22500.00000 0 -12663441.902 -2303522.668 22036733.714 10 0 60980 23400.00000 0 -13869877.429 -4658412.252 20907992.265 10 0 60980 24300.00000 0 -15160739.902 -6778739.194 19373715.761 10 0 60980 25200.00000 0 -16483004.532 -8624803.266 17463578.335 10 0 60980 26100.00000 0 -17778683.764 -10168326.196 15214552.178 10 0 60980 27000.00000 0 -18987266.941 -11393374.297 12670200.606 10 0 60980 27900.00000 0 -20048287.869 -12296767.486 9879842.058 10 0 60980 28800.00000 0 -20903912.864 -12887957.936 6897600.309 10 0 60980 29700.00000 0 -21501440.431 -13188383.775 3781358.614 10 0 60980 30600.00000 0 -21795607.033 -13230325.214 591637.662 10 0 60980 31500.00000 0 -21750600.979 -13055311.574 -2609580.872 10 0 60980 32400.00000 0 -21341698.520 -12712146.742 -5760062.082 10 0 60980 33300.00000 0 -20556451.867 -12254636.967 -8798532.887 10 0 60980 34200.00000 0 -19395377.681 -11739117.670 -11665879.984 10 0 60980 35100.00000 0 -17872115.657 -11221884.657 -14306306.626 10 0 60980 36000.00000 0 -16013049.215 -10756639.237 -16668424.944 10 0 60980 36900.00000 0 -13856403.174 -10392056.211 -18706261.835 10 0 60980 37800.00000 0 -11450855.340 -10169578.409 -20380158.373 10 0 60980 38700.00000 0 -8853719.472 -10121531.780 -21657544.941 10 0 60980 39600.00000 0 -6128775.154 -10269641.282 -22513576.862 10 0 60980 40500.00000 0 -3343834.825 -10624010.772 -22931618.238 10 0 60980 41400.00000 0 -568149.127 -11182610.314 -22903564.750 10 0 60980 42300.00000 0 2130241.559 -11931292.789 -22429999.352 10 0 60980 43200.00000 0 4687099.474 -12844339.284 -21520178.076 10 0 60980 44100.00000 0 7044418.302 -13885510.388 -20191846.411 10 0 60980 45000.00000 0 9152587.928 -15009559.078 -18470890.024 10 0 60980 45900.00000 0 10972205.809 -16164141.457 -16390826.734 10 0 60980 46800.00000 0 12475460.504 -17292044.694 -13992149.765 10 0 60980 47700.00000 0 13647030.869 -18333638.144 -11321535.233 10 0 60980 48600.00000 0 14484464.848 -19229444.111 -8430929.496 10 0 60980 49500.00000 0 14998023.642 -19922719.687 -5376534.412 10 0 60980 50400.00000 0 15209999.551 -20361940.564 -2217710.652 10 0 60980 51300.00000 0 15153537.910 -20503081.917 984179.179 10 0 60980 52200.00000 0 14871014.360 -20311600.107 4166964.691 10 0 60980 53100.00000 0 14412037.295 -19764031.579 7268875.469 10 0 60980 54000.00000 0 13831160.918 -18849141.660 10229738.747 10 0 60980 54900.00000 0 13185406.215 -17568574.870 12992143.641 10 0 60980 55800.00000 0 12531694.958 -15936979.430 15502549.452 10 0 60980 56700.00000 0 11924305.067 -13981600.564 17712316.988 10 0 60980 57600.00000 0 11412454.410 -11741359.319 19578643.514 10 0 60980 58500.00000 0 11038114.421 -9265454.910 21065384.042 10 0 60980 59400.00000 0 10834144.960 -6611548.119 22143743.991 10 0 60980 60300.00000 0 10822828.325 -3843600.374 22792830.736 10 0 60980 61200.00000 0 11014863.557 -1029457.172 23000054.156 10 0 60980 62100.00000 0 11408863.040 1761725.222 22761369.058 10 0 60980 63000.00000 0 11991372.617 4462104.521 22081355.055 10 0 60980 63900.00000 0 12737414.746 7007721.167 20973132.292 10 0 60980 64800.00000 0 13611532.624 9340905.972 19458114.261 10 0 60980 65700.00000 0 14569292.341 11412427.920 17565601.721 10 0 60980 66600.00000 0 15559181.030 13183293.893 15332224.660 10 0 60980 67500.00000 0 16524822.239 14626126.189 12801242.031 10 0 60980 68400.00000 0 17407416.218 15726060.951 10021711.703 10 0 60980 69300.00000 0 18148302.938 16481130.317 7047545.831 10 0 60980 70200.00000 0 18691540.083 16902112.479 3936469.232 10 0 60980 71100.00000 0 18986387.101 17011856.154 748900.562 10 0 60980 72000.00000 0 18989589.859 16844107.963 -2453222.014 10 0 60980 72900.00000 0 18667368.535 16441892.421 -5607647.587 10 0 60980 73800.00000 0 17997023.546 15855513.175 -8653027.749 10 0 60980 74700.00000 0 16968090.304 15140260.405 -11530115.929 10 0 60980 75600.00000 0 15582992.598 14353921.842 -14182926.709 10 0 60980 76500.00000 0 13857165.547 13554203.327 -16559831.792 10 0 60980 77400.00000 0 11818641.602 12796168.634 -18614570.591 10 0 60980 78300.00000 0 9507115.745 12129807.443 -20307155.273 10 0 60980 79200.00000 0 6972528.069 11597834.801 -21604652.342 10 0 60980 80100.00000 0 4273222.266 11233815.432 -22481825.412 10 0 60980 81000.00000 0 1473756.356 11060692.356 -22921626.723 10 0 60980 81900.00000 0 -1357543.509 11089782.016 -22915528.001 10 0 60980 82800.00000 0 -4151184.579 11320278.277 -22463684.450 10 0 60980 83700.00000 0 -6839156.423 11739286.045 -21574928.916 10 0 60980 84600.00000 0 -9357517.416 12322382.893 -20266596.557 10 0 60980 85500.00000 0 -11648811.601 13034684.679 -18564183.609 10 0 60981 0.00000 0 -13664215.762 13832369.835 -16500847.205 10 0 60981 900.00000 0 -15365329.125 14664598.102 -14116754.958 10 0 60981 1800.00000 0 -16725529.382 15475741.263 -11458299.940 10 0 60981 2700.00000 0 -17730843.193 16207832.795 -8577192.870 10 0 60981 3600.00000 0 -18380293.452 16803131.529 -5529452.122 10 0 60981 4500.00000 0 -18685711.387 17206691.150 -2374310.548 10 0 60981 5400.00000 0 -18671022.862 17368826.613 826939.004 10 0 60981 6300.00000 0 -18371040.466 17247373.073 4012136.631 10 0 60981 7200.00000 0 -17829813.727 16809641.812 7119463.106 10 0 60981 8100.00000 0 -17098608.226 16033990.494 10088638.675 10 0 60981 9000.00000 0 -16233599.736 14910941.501 12862089.549 10 0 60981 9900.00000 0 -15293381.195 13443801.125 15386059.524 10 0 60981 10800.00000 0 -14336387.816 11648753.388 17611645.574 10 0 60981 11700.00000 0 -13418348.593 9554424.164 19495737.996 10 0 60981 12600.00000 0 -12589871.058 7200933.263 21001847.632 10 0 60981 13500.00000 0 -11894260.149 4638473.267 22100805.149 10 0 60981 14400.00000 0 -11365662.032 1925473.244 22771319.735 10 0 60981 15300.00000 0 -11027610.064 -873577.486 23000387.221 10 0 60981 16200.00000 0 -10892033.235 -3690556.578 22783540.357 10 0 60981 17100.00000 0 -10958768.269 -6456287.703 22124936.687 10 0 60981 18000.00000 0 -11215595.738 -9103165.910 21037282.300 10 0 60981 18900.00000 0 -11638798.831 -11567721.897 19541592.522 10 0 60981 19800.00000 0 -12194221.789 -13793020.041 17666793.475 10 0 60981 20700.00000 0 -12838784.215 -15730791.621 15449171.265 10 0 60981 21600.00000 0 -13522388.312 -17343215.264 12931678.390 10 0 60981 22500.00000 0 -14190139.513 -18604270.983 10163109.717 10 0 60981 23400.00000 0 -14784787.475 -19500611.509 7197163.057 10 0 60981 24300.00000 0 -15249284.732 -20031914.592 4091401.834 10 0 60981 25200.00000 0 -15529354.958 -20210701.519 906139.535 10 0 60981 26100.00000 0 -15575961.826 -20061629.443 -2296732.437 10 0 60981 27000.00000 0 -15347573.320 -19620287.339 -5454950.505 10 0 60981 27900.00000 0 -14812124.623 -18931546.505 -8507094.313 10 0 60981 28800.00000 0 -13948595.246 -18047535.447 -11393787.374 10 0 60981 29700.00000 0 -12748132.244 -17025325.057 -14058858.858 10 0 60981 30600.00000 0 -11214670.555 -15924422.355 -16450443.120 10 0 60981 31500.00000 0 -9365022.763 -14804179.181 -18521994.867 10 0 60981 32400.00000 0 -7228433.102 -13721225.790 -20233199.727 10 0 60981 33300.00000 0 -4845613.096 -12727038.088 -21550762.176 10 0 60981 34200.00000 0 -2267298.234 -11865741.466 -22449055.370 10 0 60981 35100.00000 0 447614.875 -11172243.921 -22910620.286 10 0 60981 36000.00000 0 3234273.777 -10670777.110 -22926504.654 10 0 60981 36900.00000 0 6024326.425 -10373906.522 -22496435.256 10 0 60981 37800.00000 0 8748526.562 -10282052.066 -21628820.530 10 0 60981 38700.00000 0 11339380.146 -10383538.729 -20340583.591 10 0 60981 39600.00000 0 13733723.026 -10655174.532 -18656829.094 10 0 60981 40500.00000 0 15875123.015 -11063330.728 -16610350.563 10 0 60981 41400.00000 0 17716006.849 -11565478.009 -14240987.865 10 0 60981 42300.00000 0 19219424.052 -12112113.132 -11594847.504 10 0 60981 43200.00000 0 20360374.956 -12648993.984 -8723401.105 10 0 60981 44100.00000 0 21126648.478 -13119587.992 -5682479.895 10 0 60981 45000.00000 0 21519135.823 -13467629.833 -2531185.142 10 0 60981 45900.00000 0 21551608.380 -13639679.823 669263.841 10 0 60981 46800.00000 0 21249970.588 -13587574.408 3856721.279 10 0 60981 47700.00000 0 20651020.607 -13270664.927 6969322.517 10 0 60981 48600.00000 0 19800772.204 -12657749.798 9946683.832 10 0 60981 49500.00000 0 18752409.537 -11728618.454 12731071.092 10 0 60981 50400.00000 0 17563961.622 -10475141.746 15268514.633 10 0 60981 51300.00000 0 16295794.746 -8901862.682 17509849.135 10 0 60981 52200.00000 0 15008028.188 -7026062.281 19411658.928 10 0 60981 53100.00000 0 13757981.536 -4877297.214 20937111.216 10 0 60981 54000.00000 0 12597760.050 -2496427.734 22056661.992 10 0 60981 54900.00000 0 11572078.496 65824.611 22748621.937 10 0 60981 55800.00000 0 10716413.706 2750730.682 22999572.150 10 0 60981 56700.00000 0 10055562.316 5493743.243 22804622.311 10 0 60981 57600.00000 0 9602663.259 8226932.917 22167506.599 10 0 60981 58500.00000 0 9358725.403 10881571.028 21100515.484 10 0 60981 59400.00000 0 9312679.788 13390753.682 19624264.358 10 0 60981 60300.00000 0 9441954.263 15691959.526 17767302.741 10 0 60981 61200.00000 0 9713546.604 17729435.945 15565570.718 10 0 60981 62100.00000 0 10085551.413 19456315.292 13061712.064 10 0 60981 63000.00000 0 10509077.004 20836373.467 10304256.229 10 0 60981 63900.00000 0 10930471.890 21845357.650 7346684.148 10 0 60981 64800.00000 0 11293767.183 22471827.654 4246395.220 10 0 60981 65700.00000 0 11543231.704 22717475.527 1063595.065 10 0 60981 66600.00000 0 11625931.451 22596909.720 -2139874.391 10 0 60981 67500.00000 0 11494184.440 22136912.772 -5301739.566 10 0 60981 68400.00000 0 11107806.080 21375203.634 -8360510.684 10 0 60981 69300.00000 0 10436048.778 20358756.855 -11256683.688 10 0 60981 70200.00000 0 9459152.307 19141749.692 -13933904.429 10 0 60981 71100.00000 0 8169437.850 17783224.049 -16340071.735 10 0 60981 72000.00000 0 6571897.956 16344562.239 -18428357.159 10 0 60981 72900.00000 0 4684256.004 14886883.432 -20158121.064 10 0 60981 73800.00000 0 2536491.226 13468470.828 -21495706.918 10 0 60981 74700.00000 0 169847.951 12142338.171 -22415098.185 10 0 60981 75600.00000 0 -2364630.520 10954038.070 -22898425.081 10 0 60981 76500.00000 0 -5007983.003 9939804.187 -22936311.528 10 0 60981 77400.00000 0 -7695548.642 9125105.041 -22528055.735 10 0 60981 78300.00000 0 -10359430.279 8523669.664 -21681641.170 10 0 60981 79200.00000 0 -12931100.788 8137025.304 -20413577.905 10 0 60981 80100.00000 0 -15344044.106 7954565.738 -18748577.584 10 0 60981 81000.00000 0 -17536321.325 7954146.296 -16719068.482 10 0 60981 81900.00000 0 -19452955.241 8103179.491 -14364560.174 10 0 60981 82800.00000 0 -21048034.368 8360184.004 -11730870.345 10 0 60981 83700.00000 0 -22286449.161 8676720.643 -8869228.956 10 0 60981 84600.00000 0 -23145188.639 8999632.544 -5835277.450 10 0 60981 85500.00000 0 -23614144.054 9273494.076 -2687982.859 10 0 60982 0.00000 0 -23696387.045 9443164.167 511511.363 10 0 60982 900.00000 0 -23407911.777 9456335.482 3701076.725 10 0 60982 1800.00000 0 -22776853.113 9265970.985 6818805.370 10 0 60982 2700.00000 0 -21842215.008 8832524.853 9804212.062 10 0 60982 3600.00000 0 -20652163.417 8125853.381 12599404.698 10 0 60982 4500.00000 0 -19261956.350 7126735.174 15150202.422 10 0 60982 5400.00000 0 -17731598.526 5827936.295 17407179.719 10 0 60982 6300.00000 0 -16123319.125 4234775.235 19326616.863 10 0 60982 7200.00000 0 -14498978.261 2365163.464 20871339.049 10 0 60982 8100.00000 0 -12917510.188 249119.127 22011428.933 10 0 60982 9000.00000 0 -11432509.454 -2072226.806 22724799.680 10 0 60982 9900.00000 0 -10090059.913 -4548091.696 22997618.296 10 0 60982 10800.00000 0 -8926896.256 -7119910.313 22824571.671 10 0 60982 11700.00000 0 -7968973.812 -9723535.690 22208970.532 10 0 60982 12600.00000 0 -7230505.511 -12291681.906 21162689.301 10 0 60982 13500.00000 0 -6713505.530 -14756508.888 19705942.640 10 0 60982 14400.00000 0 -6407858.299 -17052243.273 17866902.327 10 0 60982 15300.00000 0 -6291909.749 -19117727.506 15681160.958 10 0 60982 16200.00000 0 -6333556.003 -20898791.922 13191051.781 10 0 60982 17100.00000 0 -6491783.883 -22350351.500 10444836.748 10 0 60982 18000.00000 0 -6718598.541 -23438139.903 7495777.585 10 0 60982 18900.00000 0 -6961257.050 -24140008.212 4401107.126 10 0 60982 19800.00000 0 -7164713.554 -24446733.628 1220920.413 10 0 60982 20700.00000 0 -7274172.316 -24362303.812 -1982992.946 10 0 60982 21600.00000 0 -7237640.035 -23903664.452 -5148352.317 10 0 60982 22500.00000 0 -7008368.510 -23099940.341 -8213601.547 10 0 60982 23400.00000 0 -6547083.098 -21991162.510 -11119112.088 10 0 60982 24300.00000 0 -5823901.290 -20626555.002 -13808349.553 10 0 60982 25200.00000 0 -4819858.791 -19062453.496 -16228980.236 10 0 60982 26100.00000 0 -3527977.062 -17359943.722 -18333895.327 10 0 60982 27000.00000 0 -1953825.746 -15582319.324 -20082132.440 10 0 60982 27900.00000 0 -115554.789 -13792466.382 -21439676.149 10 0 60982 28800.00000 0 1956606.453 -12050284.763 -22380121.857 10 0 60982 29700.00000 0 4221363.304 -10410254.637 -22885190.128 10 0 60982 30600.00000 0 6627841.669 -8919250.138 -22945081.628 10 0 60982 31500.00000 0 9117484.397 -7614691.544 -22558666.006 10 0 60982 32400.00000 0 11626279.573 -6523112.857 -21733501.269 10 0 60982 33300.00000 0 14087228.272 -5659204.000 -20485683.477 10 0 60982 34200.00000 0 16432949.164 -5025366.815 -18839529.844 10 0 60982 35100.00000 0 18598311.625 -4611802.282 -16827101.540 10 0 60982 36000.00000 0 20522987.765 -4397123.968 -14487575.567 10 0 60982 36900.00000 0 22153817.034 -4349470.561 -11866478.082 10 0 60982 37800.00000 0 23446885.010 -4428069.223 -9014794.274 10 0 60982 38700.00000 0 24369229.844 -4585182.549 -5987972.353 10 0 60982 39600.00000 0 24900105.550 -4768355.710 -2844841.413 10 0 60982 40500.00000 0 25031749.946 -4922867.779 353535.365 10 0 60982 41400.00000 0 24769625.949 -4994282.734 3545049.439 10 0 60982 42300.00000 0 24132127.075 -4930991.527 6667754.007 10 0 60982 43200.00000 0 23149760.503 -4686637.268 9661065.711 10 0 60982 44100.00000 0 21863842.934 -4222320.622 12466937.486 10 0 60982 45000.00000 0 20324764.733 -3508492.098 15030979.841 10 0 60982 45900.00000 0 18589895.679 -2526451.164 17303509.144 10 0 60982 46800.00000 0 16721220.301 -1269388.832 19240503.190 10 0 60982 47700.00000 0 14782801.641 257070.511 20804446.297 10 0 60982 48600.00000 0 12838179.055 2034851.352 21965048.463 10 0 60982 49500.00000 0 10947807.939 4033934.970 22699825.614 10 0 60982 50400.00000 0 9166647.265 6213372.897 22994530.540 10 0 60982 51300.00000 0 7541994.366 8522764.982 22843426.836 10 0 60982 52200.00000 0 6111656.065 10904142.021 22249400.914 10 0 60982 53100.00000 0 4902531.276 13294176.185 21223909.913 10 0 60982 54000.00000 0 3929663.254 15626628.887 19786766.201 10 0 60982 54900.00000 0 3195800.239 17834935.745 17965761.943 10 0 60982 55800.00000 0 2691482.371 19854822.237 15796140.092 10 0 60982 56700.00000 0 2395650.854 21626842.043 13319920.986 10 0 60982 57600.00000 0 2276753.662 23098732.754 10585096.491 10 0 60982 58500.00000 0 2294301.228 24227490.715 7644706.364 10 0 60982 59400.00000 0 2400806.520 24981078.069 4555813.975 10 0 60982 60300.00000 0 2544027.506 25339690.064 1378400.822 10 0 60982 61200.00000 0 2669416.936 25296528.835 -1825798.812 10 0 60982 62100.00000 0 2722675.288 24858050.491 -4994500.184 10 0 60982 63000.00000 0 2652298.032 24043674.492 -8066083.575 10 0 60982 63900.00000 0 2412008.338 22884966.998 -10980798.557 10 0 60982 64800.00000 0 1962970.999 21424332.207 -13681932.850 10 0 60982 65700.00000 0 1275692.536 19713266.554 -16116922.252 10 0 60982 66600.00000 0 331525.681 17810249.190 -18238379.352 10 0 60982 67500.00000 0 -876286.764 15778357.522 -20005020.457 10 0 60982 68400.00000 0 -2342074.159 13682708.088 -21382472.419 10 0 60982 69300.00000 0 -4047730.322 11587830.326 -22343943.480 10 0 60982 70200.00000 0 -5963237.462 9555083.335 -22870745.154 10 0 60982 71100.00000 0 -8047700.836 7640223.730 -22952655.152 10 0 60982 72000.00000 0 -10250851.671 5891226.076 -22588114.497 10 0 60982 72900.00000 0 -12514956.178 4346446.534 -21784255.259 10 0 60982 73800.00000 0 -14777051.427 3033205.735 -20556758.573 10 0 60982 74700.00000 0 -16971414.983 1966849.164 -18929545.863 10 0 60982 75600.00000 0 -19032165.441 1150323.126 -16934309.413 10 0 60982 76500.00000 0 -20895885.346 574282.632 -14609891.506 10 0 60982 77400.00000 0 -22504156.976 217725.140 -12001524.351 10 0 60982 78300.00000 0 -23805905.058 49121.896 -9159945.745 10 0 60982 79200.00000 0 -24759448.565 27997.673 -6140407.923 10 0 60982 80100.00000 0 -25334175.904 106890.809 -3001599.246 10 0 60982 81000.00000 0 -25511773.706 233609.469 195499.908 10 0 60982 81900.00000 0 -25286958.244 353687.646 3388804.334 10 0 60982 82800.00000 0 -24667679.444 412936.177 6516330.772 10 0 60982 83700.00000 0 -23674789.672 359980.191 9517400.467 10 0 60982 84600.00000 0 -22341191.921 148675.278 12333814.033 10 0 60982 85500.00000 0 -20710503.761 -259699.980 14910975.833 10 0 60983 0.00000 0 -18835293.667 -894567.784 17198946.209 10 0 60983 900.00000 0 -16774962.714 -1774570.781 19153402.915 10 0 60983 1800.00000 0 -14593362.649 -2906549.256 20736490.852 10 0 60983 2700.00000 0 -12356246.071 -4285020.309 21917548.665 10 0 60983 3600.00000 0 -10128656.750 -5892180.662 22673695.940 10 0 60983 4500.00000 0 -7972366.897 -7698434.157 22990271.749 10 0 60983 5400.00000 0 -5943467.052 -9663422.962 22861116.502 10 0 60983 6300.00000 0 -4090207.616 -11737520.849 22288692.031 10 0 60983 7200.00000 0 -2451180.606 -13863727.745 21284037.600 10 0 60983 8100.00000 0 -1053916.198 -15979888.166 19866562.379 10 0 60983 9000.00000 0 86048.507 -18021142.597 18063677.710 10 0 60983 9900.00000 0 965590.366 -19922510.888 15910275.408 10 0 60983 10800.00000 0 1593893.760 -21621500.905 13448061.125 10 0 60983 11700.00000 0 1991821.696 -23060634.164 10724754.605 10 0 60983 12600.00000 0 2190791.109 -24189783.063 7793171.362 10 0 60983 13500.00000 0 2231199.895 -24968221.729 4710202.855 10 0 60983 14400.00000 0 2160472.181 -25366304.040 1535714.424 10 0 60983 15300.00000 0 2030804.715 -25366697.636 -1668617.675 10 0 60983 16200.00000 0 1896710.102 -24965121.223 -4840507.370 10 0 60983 17100.00000 0 1812461.559 -24170553.258 -7918274.195 10 0 60983 18000.00000 0 1829548.253 -23004902.399 -10842048.669 10 0 60983 18900.00000 0 1994250.043 -21502152.895 -13554943.418 10 0 60983 19800.00000 0 2345435.519 -19707020.348 -16004166.474 10 0 60983 20700.00000 0 2912677.760 -17673174.029 -18142054.384 10 0 60983 21600.00000 0 3714768.803 -15461100.254 -19927004.488 10 0 60983 22500.00000 0 4758696.816 -13135696.409 -21324287.943 10 0 60983 23400.00000 0 6039130.326 -10763696.457 -22306727.479 10 0 60983 24300.00000 0 7538432.356 -8411035.684 -22855226.796 10 0 60983 25200.00000 0 9227204.882 -6140264.718 -22959141.432 10 0 60983 26100.00000 0 11065341.617 -4008120.654 -22616484.138 10 0 60983 27000.00000 0 13003545.673 -2063356.180 -21833960.977 10 0 60983 27900.00000 0 14985249.082 -344916.672 -20626837.684 10 0 60983 28800.00000 0 16948854.164 1119459.598 -19018639.015 10 0 60983 29700.00000 0 18830203.157 2314160.814 -17040687.093 10 0 60983 30600.00000 0 20565172.850 3236103.531 -14731487.786 10 0 60983 31500.00000 0 22092285.589 3894601.855 -12135977.229 10 0 60983 32400.00000 0 23355227.252 4310711.128 -9304643.280 10 0 60983 33300.00000 0 24305166.686 4516075.398 -6292539.260 10 0 60983 34200.00000 0 24902779.324 4551328.927 -3158209.524 10 0 60983 35100.00000 0 25119890.262 4464120.663 37451.839 10 0 60983 36000.00000 0 24940668.070 4306846.462 3232386.561 10 0 60983 36900.00000 0 24362319.587 4134186.020 6364578.497 10 0 60983 37800.00000 0 23395256.981 4000549.450 9373256.917 10 0 60983 38700.00000 0 22062730.542 3957542.074 12200073.285 10 0 60983 39600.00000 0 20399943.043 4051554.867 14790228.676 10 0 60983 40500.00000 0 18452683.073 4321582.464 17093530.287 10 0 60983 41400.00000 0 16275534.610 4797360.791 19065357.118 10 0 60983 42300.00000 0 13929737.536 5497902.812 20667516.825 10 0 60983 43200.00000 0 11480787.893 6430494.068 21868978.055 10 0 60983 44100.00000 0 8995877.153 7590190.506 22646465.024 10 0 60983 45000.00000 0 6541276.082 8959840.158 22984903.654 10 0 60983 45900.00000 0 4179770.818 10510628.608 22877711.323 10 0 60983 46800.00000 0 1968256.358 12203126.500 22326925.006 10 0 60983 47700.00000 0 -44413.846 13988796.627 21343165.365 10 0 60983 48600.00000 0 -1819234.057 15811899.080 19945437.191 10 0 60983 49500.00000 0 -3328434.236 17611716.364 18160769.403 10 0 60983 50400.00000 0 -4556392.916 19325006.834 16023700.700 10 0 60983 51300.00000 0 -5500037.667 20888585.024 13575619.740 10 0 60983 52200.00000 0 -6168716.944 22241921.693 10863971.568 10 0 60983 53100.00000 0 -6583549.108 23329655.037 7941344.692 10 0 60983 54000.00000 0 -6776276.270 24103907.770 4864455.738 10 0 60983 54900.00000 0 -6787671.490 24526312.351 1693050.891 10 0 60983 55800.00000 0 -6665566.825 24569658.516 -1511254.653 10 0 60983 56700.00000 0 -6462585.989 24219092.854 -4686176.492 10 0 60983 57600.00000 0 -6233678.079 23472818.857 -7769976.310 10 0 60983 58500.00000 0 -6033557.535 22342266.897 -10702668.309 10 0 60983 59400.00000 0 -5914159.625 20851725.978 -13427192.529 10 0 60983 60300.00000 0 -5922220.213 19037451.884 -15890531.486 10 0 60983 61200.00000 0 -6097083.359 16946288.567 -18044747.654 10 0 60983 62100.00000 0 -6468830.584 14633860.167 -19847921.111 10 0 60983 63000.00000 0 -7056811.946 12162409.145 -21264968.751 10 0 60983 63900.00000 0 -7868641.951 9598370.882 -22268328.977 10 0 60983 64800.00000 0 -8899703.590 7009786.005 -22838498.590 10 0 60983 65700.00000 0 -10133182.192 4463658.352 -22964411.603 10 0 60983 66600.00000 0 -11540628.400 2023368.568 -22643652.809 10 0 60983 67500.00000 0 -13083027.176 -253749.196 -21882502.215 10 0 60983 68400.00000 0 -14712328.434 -2318567.107 -20695809.694 10 0 60983 69300.00000 0 -16373375.340 -4131970.698 -19106702.443 10 0 60983 70200.00000 0 -18006149.600 -5666238.878 -17146131.100 10 0 60983 71100.00000 0 -19548239.591 -6905940.549 -14852263.401 10 0 60983 72000.00000 0 -20937427.728 -7848311.845 -12269737.341 10 0 60983 72900.00000 0 -22114288.370 -8503099.867 -9448788.484 10 0 60983 73800.00000 0 -23024687.059 -8891881.242 -6444268.669 10 0 60983 74700.00000 0 -23622075.933 -9046885.917 -3314575.502 10 0 60983 75600.00000 0 -23869488.848 -9009377.433 -120513.903 10 0 60983 76500.00000 0 -23741152.335 -8827659.500 3075887.767 10 0 60983 77400.00000 0 -23223644.785 -8554794.368 6212583.517 10 0 60983 78300.00000 0 -22316555.383 -8246130.394 9228713.709 10 0 60983 79200.00000 0 -21032615.311 -7956744.010 12065783.686 10 0 60983 80100.00000 0 -19397295.956 -7738904.609 14668794.158 10 0 60983 81000.00000 0 -17447891.067 -7639669.533 16987301.718 10 0 60983 81900.00000 0 -15232121.244 -7698710.622 18976389.480 10 0 60983 82800.00000 0 -12806318.808 -7946463.754 20597529.727 10 0 60983 83700.00000 0 -10233268.288 -8402679.113 21819322.788 10 0 60983 84600.00000 0 -7579791.638 -9075433.083 22618098.731 10 0 60983 85500.00000 0 -4914177.664 -9960643.397 22978371.101 99